• Em Portugal
  • Lista de países
  • Para 7 dias
  • Temperatura da água
  • Mapas de satélite
  • Mapa do tempo
  • Widgets de tempo
  • user-avatar
    Iniciar Sessão

    Previsão horária em Slobodka

    Hoje, 21 Maio, Segunda-feira

    Tempo Temperatura Precipitação Vento Pressão Humidade
    00:00 +11°C° 0 mm 3 m/s 747 mmHg 90%
    01:00 +11°C° 0 mm 4 m/s 748 mmHg 92%
    02:00 +11°C° 0 mm 4 m/s 747 mmHg 93%
    03:00 +10°C° 0,3 mm 5 m/s 748 mmHg 93%
    04:00 +10°C° 0,3 mm 5 m/s 748 mmHg 93%
    05:00 +10°C° 0,3 mm 5 m/s 748 mmHg 93%
    06:00 +11°C° 0,6 mm 6 m/s 748 mmHg 92%
    07:00 +11°C° 0,6 mm 6 m/s 748 mmHg 91%
    08:00 +11°C° 0,6 mm 6 m/s 749 mmHg 90%
    09:00 +13°C° 0,3 mm 6 m/s 749 mmHg 88%
    10:00 +14°C° 0,3 mm 7 m/s 749 mmHg 85%
    11:00 +15°C° 0,3 mm 7 m/s 749 mmHg 82%
    12:00 +15°C° 0,1 mm 7 m/s 749 mmHg 81%
    13:00 +15°C° 0,1 mm 7 m/s 749 mmHg 81%
    14:00 +15°C° 0,1 mm 6 m/s 749 mmHg 80%
    15:00 +15°C° 0,2 mm 6 m/s 749 mmHg 82%
    16:00 +14°C° 0,2 mm 5 m/s 750 mmHg 85%
    17:00 +14°C° 0,2 mm 5 m/s 750 mmHg 87%
    18:00 +13°C° 0,2 mm 5 m/s 750 mmHg 89%
    19:00 +12°C° 0,2 mm 5 m/s 750 mmHg 90%
    20:00 +12°C° 0,2 mm 5 m/s 750 mmHg 91%
    21:00 +12°C° 0,1 mm 5 m/s 750 mmHg 92%
    22:00 +10°C° 0,1 mm 5 m/s 750 mmHg 93%
    23:00 +11°C° 0,1 mm 4 m/s 750 mmHg 93%

    Amanhã, 22 Maio, Terça-feira

    Tempo Temperatura Precipitação Vento Pressão Humidade
    00:00 +11°C° 0,1 mm 4 m/s 750 mmHg 94%
    01:00 +12°C° 0,1 mm 4 m/s 750 mmHg 94%
    02:00 +12°C° 0,1 mm 4 m/s 750 mmHg 95%
    03:00 +12°C° 0,2 mm 4 m/s 750 mmHg 96%
    04:00 +12°C° 0,2 mm 3 m/s 750 mmHg 96%
    05:00 +13°C° 0,2 mm 3 m/s 750 mmHg 97%
    06:00 +14°C° 0,1 mm 3 m/s 750 mmHg 96%
    07:00 +14°C° 0,1 mm 3 m/s 750 mmHg 95%
    08:00 +16°C° 0,1 mm 3 m/s 750 mmHg 95%
    09:00 +17°C° 0,1 mm 3 m/s 750 mmHg 92%
    10:00 +18°C° 0,1 mm 3 m/s 751 mmHg 90%
    11:00 +19°C° 0,1 mm 3 m/s 751 mmHg 88%
    12:00 +19°C° 0,2 mm 3 m/s 751 mmHg 86%
    13:00 +20°C° 0,2 mm 4 m/s 751 mmHg 84%
    14:00 +20°C° 0,2 mm 4 m/s 751 mmHg 83%
    15:00 +20°C° 0,2 mm 4 m/s 751 mmHg 83%
    16:00 +20°C° 0,2 mm 3 m/s 751 mmHg 83%
    17:00 +20°C° 0,2 mm 3 m/s 751 mmHg 84%
    18:00 +19°C° 0 mm 3 m/s 751 mmHg 87%
    19:00 +17°C° 0 mm 2 m/s 751 mmHg 91%
    20:00 +16°C° 0 mm 2 m/s 751 mmHg 95%
    21:00 +16°C° 0 mm 2 m/s 751 mmHg 95%
    22:00 +15°C° 0 mm 2 m/s 751 mmHg 95%
    23:00 +15°C° 0 mm 1 m/s 751 mmHg 96%

    Depois de amanhã, 23 Maio, Quarta-feira

    Tempo Temperatura Precipitação Vento Pressão Humidade
    00:00 +14°C° 0 mm 1 m/s 751 mmHg 96%
    01:00 +14°C° 0 mm 1 m/s 751 mmHg 96%
    02:00 +14°C° 0 mm 1 m/s 751 mmHg 96%
    03:00 +14°C° 0 mm 1 m/s 751 mmHg 96%
    04:00 +13°C° 0 mm 0 m/s 751 mmHg 96%
    05:00 +14°C° 0 mm 0 m/s 751 mmHg 96%
    06:00 +15°C° 0 mm 0 m/s 751 mmHg 91%
    07:00 +17°C° 0 mm 0 m/s 752 mmHg 86%
    08:00 +19°C° 0 mm 0 m/s 752 mmHg 81%
    09:00 +20°C° 0 mm 0 m/s 752 mmHg 75%
    10:00 +21°C° 0 mm 0 m/s 752 mmHg 69%
    11:00 +22°C° 0 mm 0 m/s 751 mmHg 63%
    12:00 +23°C° 0 mm 0 m/s 751 mmHg 59%
    13:00 +23°C° 0 mm 0 m/s 751 mmHg 56%
    14:00 +24°C° 0 mm 0 m/s 751 mmHg 53%
    15:00 +24°C° 0 mm 0 m/s 750 mmHg 55%
    16:00 +26°C° 0 mm 1 m/s 750 mmHg 57%
    17:00 +25°C° 0 mm 1 m/s 750 mmHg 60%
    18:00 +23°C° 0 mm 1 m/s 750 mmHg 65%
    19:00 +21°C° 0 mm 1 m/s 750 mmHg 70%
    20:00 +19°C° 0 mm 1 m/s 750 mmHg 75%
    21:00 +19°C° 0 mm 1 m/s 750 mmHg 77%
    22:00 +18°C° 0 mm 1 m/s 750 mmHg 80%
    23:00 +16°C° 0 mm 1 m/s 749 mmHg 83%

    24 Maio, Quinta-feira

    Tempo Temperatura Precipitação Vento Pressão Humidade
    00:00 +16°C° 0 mm 1 m/s 749 mmHg 84%
    01:00 +16°C° 0 mm 2 m/s 749 mmHg 86%
    02:00 +15°C° 0 mm 2 m/s 749 mmHg 88%
    03:00 +15°C° 0 mm 2 m/s 749 mmHg 88%
    04:00 +16°C° 0 mm 2 m/s 749 mmHg 88%
    05:00 +16°C° 0 mm 2 m/s 749 mmHg 88%
    06:00 +18°C° 0 mm 2 m/s 749 mmHg 84%
    07:00 +19°C° 0 mm 3 m/s 749 mmHg 80%
    08:00 +21°C° 0 mm 3 m/s 749 mmHg 75%
    09:00 +22°C° 0 mm 3 m/s 749 mmHg 72%
    10:00 +23°C° 0 mm 4 m/s 749 mmHg 68%
    11:00 +25°C° 0 mm 4 m/s 748 mmHg 64%
    12:00 +25°C° 0 mm 4 m/s 748 mmHg 63%
    13:00 +26°C° 0 mm 4 m/s 748 mmHg 63%
    14:00 +26°C° 0 mm 4 m/s 747 mmHg 62%
    15:00 +25°C° 0 mm 4 m/s 747 mmHg 65%
    16:00 +25°C° 0 mm 4 m/s 747 mmHg 68%
    17:00 +23°C° 0 mm 4 m/s 747 mmHg 71%
    18:00 +22°C° 0 mm 4 m/s 747 mmHg 74%
    19:00 +20°C° 0 mm 3 m/s 747 mmHg 78%
    20:00 +18°C° 0 mm 3 m/s 747 mmHg 82%
    21:00 +17°C° 0 mm 3 m/s 747 mmHg 83%
    22:00 +17°C° 0 mm 3 m/s 747 mmHg 85%
    23:00 +15°C° 0 mm 4 m/s 748 mmHg 86%

    25 Maio, Sexta-feira

    Tempo Temperatura Precipitação Vento Pressão Humidade
    00:00 +15°C° 0 mm 4 m/s 748 mmHg 87%
    01:00 +14°C° 0 mm 4 m/s 748 mmHg 88%
    02:00 +14°C° 0 mm 4 m/s 748 mmHg 90%
    03:00 +14°C° 0 mm 5 m/s 748 mmHg 90%
    04:00 +13°C° 0 mm 5 m/s 748 mmHg 90%
    05:00 +13°C° 0 mm 6 m/s 749 mmHg 90%
    06:00 +14°C° 0 mm 6 m/s 749 mmHg 86%
    07:00 +15°C° 0 mm 7 m/s 749 mmHg 82%
    08:00 +16°C° 0 mm 7 m/s 749 mmHg 77%
    09:00 +16°C° 0 mm 7 m/s 750 mmHg 73%
    10:00 +17°C° 0 mm 7 m/s 750 mmHg 69%
    11:00 +17°C° 0 mm 8 m/s 750 mmHg 65%
    12:00 +17°C° 0 mm 8 m/s 750 mmHg 62%
    13:00 +17°C° 0 mm 8 m/s 750 mmHg 60%
    14:00 +17°C° 0 mm 8 m/s 750 mmHg 58%
    15:00 +16°C° 0 mm 7 m/s 750 mmHg 59%
    16:00 +15°C° 0 mm 7 m/s 751 mmHg 61%
    17:00 +14°C° 0 mm 7 m/s 751 mmHg 62%
    18:00 +13°C° 0 mm 6 m/s 751 mmHg 63%
    19:00 +11°C° 0 mm 6 m/s 752 mmHg 64%
    20:00 +9°C° 0 mm 5 m/s 752 mmHg 65%
    21:00 +8°C° 0 mm 5 m/s 752 mmHg 64%
    22:00 +8°C° 0 mm 5 m/s 753 mmHg 62%
    23:00 +7°C° 0 mm 5 m/s 753 mmHg 61%

    26 Maio, Sábado

    Tempo Temperatura Precipitação Vento Pressão Humidade
    00:00 +6°C° 0 mm 5 m/s 753 mmHg 62%
    01:00 +6°C° 0 mm 5 m/s 754 mmHg 62%
    02:00 +5°C° 0 mm 4 m/s 754 mmHg 63%
    03:00 +5°C° 0 mm 4 m/s 754 mmHg 65%
    04:00 +5°C° 0 mm 5 m/s 755 mmHg 67%
    05:00 +5°C° 0 mm 5 m/s 755 mmHg 69%
    06:00 +6°C° 0 mm 5 m/s 755 mmHg 64%
    07:00 +8°C° 0 mm 6 m/s 755 mmHg 59%
    08:00 +9°C° 0 mm 6 m/s 756 mmHg 55%
    09:00 +10°C° 0 mm 6 m/s 756 mmHg 54%
    10:00 +11°C° 0 mm 7 m/s 756 mmHg 53%
    11:00 +12°C° 0 mm 7 m/s 756 mmHg 52%
    12:00 +13°C° 0 mm 6 m/s 756 mmHg 52%
    13:00 +14°C° 0 mm 6 m/s 756 mmHg 52%
    14:00 +14°C° 0 mm 6 m/s 756 mmHg 52%
    15:00 +14°C° 0 mm 6 m/s 755 mmHg 55%
    16:00 +14°C° 0 mm 5 m/s 755 mmHg 57%
    17:00 +14°C° 0 mm 5 m/s 755 mmHg 60%
    18:00 +12°C° 0 mm 4 m/s 755 mmHg 65%
    19:00 +11°C° 0 mm 3 m/s 755 mmHg 70%
    20:00 +9°C° 0 mm 2 m/s 755 mmHg 75%
    21:00 +9°C° 0 mm 2 m/s 755 mmHg 75%
    22:00 +9°C° 0 mm 2 m/s 756 mmHg 76%
    23:00 +8°C° 0 mm 2 m/s 756 mmHg 77%
    Mostrar mais